Wind_Speed
13 14 16 17 20 21 22 24 26 28 29 31 32 33 34 34 35 36 37 37 37 37 37 36 35 36 35 35 36 37 38 38 38 39 41 41 43 44 45 47 48 50 52 53
9 11 14 17 18 19 21 23 25 27 29 29 30 31 32 32 32 32 33 34 33 32 32 33 34 33 33 33 33 34 35 36 37 39 41 41 43 44 45 46 48 50 51 52
8 10 11 13 16 19 20 22 24 25 27 28 29 29 30 30 29 28 28 28 29 29 28 30 30 30 29 29 30 31 33 35 36 37 39 41 42 43 44 46 47 48 49 50
6 8 10 11 13 15 17 19 20 21 23 25 26 26 27 27 27 26 25 25 26 27 27 27 27 28 28 28 29 30 31 33 35 36 37 39 40 42 43 45 45 46 47 48
6 6 7 9 11 12 13 14 15 16 18 19 21 21 22 22 21 21 21 21 22 22 23 24 24 25 26 27 29 30 32 33 34 35 37 38 39 41 42 42 43 44 45 46
7 7 8 8 10 11 12 13 13 14 15 15 16 17 19 18 18 18 19 19 19 20 21 22 23 24 26 28 29 30 30 31 33 34 35 36 37 38 38 39 40 42 43 44
9 9 9 9 10 11 12 12 12 13 13 13 14 15 15 16 16 16 16 17 17 18 20 21 22 24 25 26 27 28 29 30 31 32 33 34 35 36 37 37 38 39 39 39
10 11 11 11 11 11 12 12 12 12 12 12 12 13 14 14 14 14 15 15 17 18 19 20 22 23 23 24 25 26 27 28 29 30 31 32 32 32 32 33 34 34 33 32
12 12 12 12 12 12 12 11 11 11 10 11 11 11 12 12 12 13 14 15 16 17 19 20 20 21 22 23 24 25 26 27 27 27 28 27 27 28 28 29 29 28 27 26
13 13 13 13 13 12 11 11 10 10 9 9 9 10 10 10 11 12 13 14 16 17 18 19 20 20 21 22 23 23 23 23 23 23 23 23 23 24 24 25 25 24 23 22
14 14 14 13 13 12 11 10 9 8 8 8 8 8 8 9 9 11 12 14 15 17 17 18 18 18 19 19 20 20 19 19 19 19 20 20 20 20 21 21 21 20 19 18
15 15 14 13 13 12 10 9 7 7 7 7 7 7 8 8 10 11 13 14 16 16 16 16 16 17 18 18 18 18 17 17 17 17 17 18 18 18 18 18 18 17 16 15
16 16 15 14 12 11 10 9 7 7 6 7 7 7 8 9 11 12 14 15 16 15 16 17 18 17 17 17 17 16 15 15 15 15 15 15 16 16 16 16 16 14 13 13
17 17 15 15 13 11 10 8 7 7 7 7 7 7 9 10 12 13 14 15 15 16 16 17 17 17 17 16 16 15 14 13 12 12 13 14 14 15 14 14 13 13 12 11
17 17 16 15 13 12 10 9 8 7 7 7 8 8 10 12 13 14 14 14 15 15 15 16 16 15 15 14 13 12 12 11 10 11 11 12 13 13 13 12 12 11 11 10
18 17 16 15 14 12 10 9 8 7 7 8 9 10 12 13 14 15 14 15 15 15 15 16 16 15 14 12 11 10 10 9 9 10 10 11 12 12 11 11 11 10 10 10
18 17 17 16 14 12 10 9 8 8 8 8 9 11 13 14 15 15 14 15 15 15 16 16 15 14 13 12 11 9 8 8 9 9 9 10 10 11 10 10 10 9 9 9
18 18 17 16 14 12 10 9 8 8 8 9 10 12 13 15 16 16 15 15 16 16 16 16 16 14 13 12 10 9 8 7 8 8 8 8 9 9 9 9 9 9 9 9
17 18 17 16 14 12 10 9 8 8 8 9 10 12 13 15 16 16 15 16 16 16 17 17 16 15 13 11 10 8 7 7 7 7 7 7 7 8 8 9 9 8 8 8
16 17 17 16 14 12 10 9 8 8 8 9 10 12 13 15 16 17 16 16 17 17 17 17 17 16 14 12 10 9 8 7 7 6 6 6 6 7 7 8 8 8 8 8
15 16 17 16 14 12 10 9 8 7 8 8 10 11 13 15 16 17 17 17 18 18 18 18 18 17 16 13 12 10 9 8 7 6 6 6 6 7 7 7 8 8 8 8
14 15 16 15 14 12 10 8 7 7 7 8 9 11 13 14 16 17 18 18 18 18 19 19 19 19 17 16 14 12 10 10 9 8 7 7 7 7 7 7 7 8 8 8
13 14 15 15 13 11 10 8 7 7 7 7 8 10 11 13 15 16 17 18 18 18 19 19 20 20 19 17 16 14 13 12 11 10 9 9 8 8 8 8 8 8 8 9
13 13 14 14 13 11 9 8 7 6 6 6 7 8 10 12 14 15 16 17 18 18 18 19 20 20 19 18 17 16 15 14 13 12 11 11 11 11 11 10 10 10 10 10
13 13 13 13 12 10 9 8 7 6 6 5 6 7 8 10 12 14 16 17 17 17 18 19 19 19 19 19 18 17 16 16 15 14 13 13 13 13 13 13 13 12 12 12
13 13 12 12 12 11 9 8 7 6 6 5 5 6 7 9 10 12 13 15 16 16 17 17 18 19 19 19 18 17 16 16 15 15 15 14 14 14 14 14 14 14 13 13
14 13 12 12 11 11 10 8 8 7 6 6 6 6 6 7 8 9 11 12 14 15 15 16 17 17 17 18 18 18 17 17 16 15 15 15 14 14 14 14 14 13 13 13
Wind_Direction
232 234 235 241 243 242 245 249 254 256 260 262 263 264 266 269 271 272 273 276 278 279 279 281 281 280 281 280 280 279 278 278 277 278 280 282 283 284 285 285 285 286 288 289
244 247 250 253 255 255 258 260 261 262 263 266 268 269 272 275 275 275 278 279 279 278 279 282 283 281 281 282 281 281 280 280 281 281 282 284 284 286 289 289 289 289 290 291
260 261 265 262 263 263 265 266 267 267 266 266 267 271 273 274 276 278 279 278 276 279 281 283 283 281 281 281 283 283 283 283 283 284 285 286 287 288 289 290 291 291 292 293
283 278 272 274 273 272 272 271 268 266 265 265 266 269 272 274 276 276 277 278 280 281 280 281 282 281 283 282 283 285 285 285 285 286 287 288 290 291 292 293 293 295 296 296
311 297 289 280 278 278 278 278 279 276 271 267 267 271 272 274 275 274 274 276 278 280 281 282 283 283 284 284 285 286 287 287 288 290 291 292 294 295 296 296 297 298 298 299
332 319 309 301 292 287 285 285 288 283 278 276 274 274 275 278 278 276 277 276 279 281 283 284 284 284 285 286 288 289 290 291 293 295 296 297 298 299 299 300 300 301 301 302
343 333 325 320 311 303 296 294 292 287 282 276 276 277 278 278 279 279 280 282 283 283 285 287 288 288 288 290 291 293 295 296 297 297 298 299 300 301 301 302 304 305 306 306
348 343 336 330 322 314 306 300 295 291 287 284 282 280 278 279 280 282 285 287 288 288 290 292 293 292 293 295 297 298 299 300 300 300 301 302 303 305 307 309 311 313 313 314
354 348 342 337 330 323 315 309 304 302 298 293 290 287 285 286 288 290 293 295 296 297 296 296 295 296 297 299 302 303 304 304 305 305 306 307 308 311 314 317 319 321 321 321
357 353 349 343 338 332 325 318 313 310 307 303 299 297 296 298 301 301 303 303 303 303 301 299 298 299 302 305 307 308 308 309 310 311 313 315 316 318 321 324 326 327 329 329
2 358 354 350 345 338 332 327 322 319 318 316 315 313 312 313 313 312 313 312 312 310 308 307 306 306 308 311 312 312 312 314 315 317 319 321 323 325 328 330 332 334 336 339
3 1 357 354 350 347 345 342 337 333 333 332 330 328 325 324 322 320 319 319 318 317 314 313 311 309 309 311 313 313 314 316 318 320 324 327 330 332 334 337 340 343 346 350
6 3 0 357 355 354 353 350 347 343 340 338 335 334 333 332 331 330 328 326 324 322 318 316 315 313 312 312 312 312 313 315 318 323 327 331 335 338 341 343 347 354 360 5
8 6 4 1 359 357 355 352 351 349 349 348 347 346 344 342 340 337 334 332 331 329 327 324 321 317 313 312 311 311 313 315 319 326 331 336 340 345 348 352 357 4 8 13
9 8 6 5 3 1 359 358 358 359 359 360 359 354 351 349 346 344 342 342 340 338 336 334 330 326 322 318 316 315 316 317 321 327 334 340 345 350 354 359 5 12 18 23
8 8 8 8 6 3 2 3 2 2 2 2 1 359 356 354 353 352 351 349 347 345 342 340 338 335 332 328 324 323 323 324 326 331 337 344 349 354 359 4 11 19 25 31
7 7 7 8 7 6 6 5 4 3 5 7 6 4 1 360 359 357 356 354 353 350 348 346 344 341 339 337 333 329 327 328 331 334 340 347 354 359 3 9 15 21 27 35
6 7 7 7 7 7 6 6 5 6 9 9 7 6 6 5 4 3 0 358 356 353 352 350 349 347 346 344 342 338 334 333 335 336 341 349 356 2 8 14 19 25 32 42
3 5 5 6 7 7 6 5 5 7 9 9 9 9 9 8 7 6 4 3 2 360 360 0 359 359 357 356 354 352 349 345 343 343 345 353 359 6 13 19 24 31 40 49
359 2 3 4 4 5 5 4 5 7 9 10 10 10 10 9 9 9 9 9 8 8 9 9 10 9 7 5 4 2 2 2 2 1 2 6 11 15 20 25 30 38 47 55
354 358 0 1 2 3 4 3 4 5 7 10 11 12 12 13 13 14 15 14 13 14 14 14 14 15 16 16 15 15 17 19 20 20 20 21 21 22 25 30 37 44 51 57
347 352 356 358 358 359 359 359 0 1 3 6 8 10 12 14 16 17 18 18 17 18 20 21 21 23 23 24 27 31 32 32 33 33 34 34 33 31 33 37 42 48 54 59
339 345 350 353 354 354 353 353 353 353 355 358 3 7 10 13 16 18 19 19 19 22 24 25 26 28 30 34 38 40 41 42 41 43 46 47 44 43 45 49 54 59 63 66
330 336 342 346 349 349 347 345 343 342 343 347 355 1 6 11 15 18 20 20 22 24 27 28 30 32 35 38 41 43 44 45 46 48 51 52 52 54 57 61 65 67 69 71
320 326 332 338 341 341 339 335 332 328 327 330 339 349 357 4 11 17 21 22 24 27 30 31 33 35 37 39 41 43 45 46 49 51 54 56 58 60 63 66 68 71 73 73
309 316 322 327 331 332 329 325 320 316 312 312 318 329 342 353 2 11 19 23 24 28 32 34 35 36 38 39 40 43 45 47 51 54 56 58 60 63 66 68 70 73 73 73
298 305 312 317 321 322 319 314 308 303 299 298 300 308 321 337 351 2 12 19 22 26 30 33 34 36 37 39 41 43 46 49 52 55 57 59 62 65 67 68 70 70 70 70
Height
5748 5750 5752 5753 5755 5756 5758 5759 5760 5761 5761 5762 5763 5763 5764 5764 5764 5764 5764 5764 5764 5763 5763 5762 5761 5760 5759 5759 5757 5756 5755 5754 5752 5750 5747 5745 5742 5739 5736 5733 5729 5726 5722 5718
5747 5748 5749 5751 5751 5753 5754 5754 5754 5755 5755 5755 5755 5756 5756 5756 5756 5756 5756 5755 5755 5754 5753 5753 5752 5751 5750 5749 5747 5746 5744 5743 5741 5738 5736 5733 5730 5727 5724 5721 5717 5713 5709 5705
5745 5746 5747 5748 5748 5748 5748 5748 5749 5748 5749 5749 5749 5749 5749 5749 5749 5748 5748 5747 5746 5746 5745 5744 5743 5742 5741 5740 5738 5736 5735 5732 5730 5728 5725 5722 5719 5716 5712 5708 5705 5700 5696 5692
5743 5744 5744 5746 5744 5744 5743 5743 5742 5742 5742 5742 5742 5742 5742 5742 5741 5741 5740 5739 5738 5738 5737 5736 5735 5733 5732 5730 5729 5727 5725 5723 5720 5718 5715 5712 5708 5705 5701 5697 5692 5688 5683 5679
5741 5741 5741 5741 5740 5739 5739 5738 5738 5737 5736 5736 5735 5735 5735 5735 5734 5734 5733 5732 5731 5731 5730 5728 5727 5726 5724 5722 5721 5719 5716 5714 5711 5708 5705 5702 5698 5695 5691 5686 5682 5677 5672 5666
5740 5739 5739 5739 5737 5736 5736 5735 5734 5732 5731 5731 5730 5731 5730 5729 5729 5728 5727 5726 5725 5725 5723 5722 5720 5719 5717 5715 5713 5711 5708 5706 5703 5699 5696 5693 5689 5685 5680 5676 5671 5666 5661 5655
5739 5737 5736 5735 5733 5733 5733 5732 5730 5728 5727 5726 5726 5726 5725 5724 5723 5723 5722 5721 5720 5719 5718 5716 5714 5712 5710 5708 5706 5703 5700 5698 5695 5691 5688 5684 5680 5676 5672 5667 5662 5656 5651 5645
5737 5735 5736 5732 5731 5730 5729 5726 5725 5724 5723 5722 5722 5721 5721 5720 5719 5718 5717 5716 5715 5714 5712 5710 5708 5706 5704 5702 5699 5696 5693 5690 5687 5684 5680 5676 5672 5668 5664 5659 5653 5648 5642 5636
5737 5736 5732 5730 5728 5726 5724 5723 5722 5720 5720 5719 5718 5718 5717 5716 5715 5714 5713 5712 5710 5709 5707 5705 5703 5700 5698 5695 5693 5690 5686 5683 5680 5676 5673 5669 5665 5661 5657 5652 5647 5641 5636 5631
5735 5733 5730 5728 5725 5723 5721 5720 5719 5718 5717 5716 5715 5714 5714 5713 5712 5711 5709 5708 5706 5704 5702 5700 5697 5695 5692 5689 5686 5683 5680 5677 5673 5670 5667 5663 5660 5656 5652 5647 5642 5637 5632 5627
5735 5732 5729 5726 5724 5721 5720 5718 5717 5716 5715 5714 5713 5712 5711 5710 5709 5708 5706 5704 5702 5699 5697 5694 5692 5689 5686 5684 5681 5678 5675 5672 5669 5666 5662 5659 5655 5652 5648 5643 5639 5634 5630 5625
5735 5732 5729 5726 5723 5721 5719 5717 5716 5715 5714 5712 5711 5710 5709 5708 5707 5705 5703 5701 5698 5695 5692 5690 5687 5684 5682 5679 5676 5673 5670 5668 5665 5662 5659 5656 5652 5649 5645 5641 5637 5633 5628 5624
5734 5731 5728 5725 5722 5720 5718 5716 5715 5714 5713 5712 5710 5709 5708 5706 5704 5702 5700 5697 5694 5691 5689 5686 5682 5679 5677 5674 5671 5669 5667 5664 5662 5659 5657 5654 5650 5647 5643 5640 5636 5632 5628 5625
5733 5730 5727 5724 5722 5719 5718 5716 5714 5713 5712 5711 5709 5708 5707 5705 5703 5700 5697 5694 5691 5688 5685 5681 5678 5675 5672 5669 5667 5665 5663 5661 5659 5657 5654 5652 5649 5646 5642 5639 5636 5632 5629 5626
5733 5730 5727 5724 5721 5719 5717 5715 5714 5713 5712 5710 5709 5707 5706 5703 5701 5698 5695 5692 5689 5685 5682 5678 5675 5671 5668 5665 5663 5661 5660 5658 5657 5655 5653 5650 5648 5645 5642 5639 5636 5633 5630 5627
5733 5730 5727 5724 5721 5719 5717 5715 5714 5713 5711 5710 5708 5707 5705 5702 5699 5696 5693 5690 5687 5683 5680 5676 5672 5668 5665 5662 5660 5659 5657 5656 5655 5653 5651 5649 5647 5644 5642 5639 5636 5634 5631 5629
5733 5730 5727 5724 5721 5719 5717 5715 5714 5712 5711 5710 5708 5706 5704 5701 5698 5695 5692 5689 5685 5682 5678 5674 5670 5667 5663 5661 5658 5656 5655 5654 5653 5651 5650 5648 5646 5644 5642 5640 5637 5635 5633 5630
5733 5730 5727 5724 5721 5719 5717 5715 5714 5712 5711 5710 5708 5706 5703 5701 5698 5694 5691 5688 5684 5681 5677 5673 5669 5665 5662 5659 5657 5655 5653 5652 5651 5650 5649 5648 5646 5644 5642 5640 5638 5636 5634 5632
5732 5730 5727 5724 5721 5719 5717 5715 5714 5712 5711 5710 5708 5706 5703 5701 5697 5694 5691 5687 5684 5680 5676 5672 5668 5664 5661 5658 5656 5654 5653 5651 5650 5649 5648 5647 5646 5645 5643 5641 5639 5637 5636 5634
5732 5729 5726 5723 5721 5719 5717 5715 5714 5713 5711 5710 5708 5706 5704 5701 5698 5694 5691 5688 5684 5680 5676 5672 5668 5664 5660 5658 5655 5654 5652 5651 5650 5649 5648 5647 5646 5645 5644 5642 5640 5639 5637 5636
5731 5728 5726 5723 5721 5718 5717 5715 5714 5713 5711 5710 5709 5707 5704 5702 5698 5695 5692 5688 5685 5681 5677 5672 5668 5664 5661 5658 5655 5654 5653 5651 5650 5649 5648 5648 5647 5646 5644 5643 5642 5640 5639 5638
5730 5728 5725 5723 5720 5718 5716 5715 5714 5713 5712 5710 5709 5707 5705 5702 5699 5696 5693 5690 5686 5682 5678 5674 5670 5666 5662 5659 5657 5655 5654 5653 5651 5650 5649 5648 5648 5646 5645 5644 5643 5642 5641 5640
5728 5726 5724 5722 5719 5718 5716 5715 5713 5712 5711 5710 5709 5708 5706 5703 5701 5698 5695 5692 5688 5684 5681 5677 5673 5669 5665 5662 5660 5658 5656 5655 5653 5652 5651 5650 5649 5648 5647 5646 5645 5644 5643 5642
5726 5725 5723 5721 5718 5717 5715 5714 5713 5712 5711 5710 5709 5708 5706 5705 5702 5699 5696 5693 5690 5687 5683 5680 5676 5673 5669 5666 5664 5662 5660 5658 5656 5655 5653 5652 5651 5650 5649 5648 5647 5646 5645 5645
5724 5722 5721 5719 5717 5715 5714 5713 5712 5711 5711 5710 5709 5708 5707 5705 5703 5701 5698 5695 5692 5689 5686 5683 5680 5676 5673 5670 5668 5666 5664 5662 5660 5658 5657 5655 5654 5653 5652 5651 5650 5649 5649 5648
5721 5720 5718 5717 5715 5714 5713 5711 5711 5710 5710 5709 5709 5708 5707 5706 5704 5702 5700 5698 5695 5692 5689 5686 5683 5681 5678 5675 5672 5670 5668 5666 5664 5662 5660 5659 5658 5657 5656 5655 5654 5654 5653 5652
5717 5716 5715 5714 5713 5712 5711 5710 5709 5708 5708 5708 5708 5707 5707 5706 5705 5703 5701 5699 5697 5695 5692 5689 5687 5684 5682 5679 5677 5674 5672 5670 5668 5666 5665 5663 5662 5661 5660 5659 5658 5658 5657 5656